GUNLAK-WX Weather Reports


Display with metric or nautical units.
time (UTC)temp
F
wind
direction
speed
MPH
gust
MPH
rain 1hr
in
rain 24hr
in
rain mn
in
humidity
%
barometer
mb
20260906121613 57 50 5.0 0.0 0.00 0.00 0.00 91 991.7
20260906120108 56 48 5.0 0.0 0.00 0.00 0.00 91 991.7
20260906114615 55 49 5.0 0.0 0.00 0.00 0.00 88 990.1
20260906113113 55 43 4.0 0.0 0.00 0.00 0.00 85 991.5
20260906111613 55 49 4.0 0.0 0.00 0.00 0.00 85 991.5
20260906110116 56 56 4.0 0.0 0.00 0.00 0.00 85 991.5
20260906104614 56 49 4.0 0.0 0.00 0.00 0.00 84 990.7
20260906103117 56 51 4.0 0.0 0.00 0.00 0.00 85 991.5
20260906101608 56 49 4.0 0.0 0.00 0.00 0.00 85 991.5
20260906100119 57 49 4.0 0.0 0.00 0.00 0.00 85 991.5
20260906094615 57 47 4.0 0.0 0.00 0.00 0.00 86 990.7
20260906093116 57 41 4.0 0.0 0.00 0.00 0.00 83 991.4
20260906091613 57 43 4.0 0.0 0.00 0.00 0.00 83 991.4
20260906090119 57 49 4.0 0.0 0.00 0.00 0.00 83 991.4
20260906084616 58 49 4.0 0.0 0.00 0.00 0.00 86 990.3
20260906083113 58 47 4.0 0.0 0.00 0.00 0.00 79 990.9
20260906081611 59 53 5.0 0.0 0.00 0.00 0.00 79 990.9
20260906080135 59 55 5.0 0.0 0.00 0.00 0.00 79 990.6
20260906074614 60 56 5.0 0.0 0.00 0.00 0.00 78 989.7
20260906073113 60 54 5.0 0.0 0.00 0.00 0.00 78 989.7
20260906071615 60 59 4.0 0.0 0.00 0.00 0.00 78 989.7
20260906070117 60 66 4.0 0.0 0.00 0.00 0.00 78 989.7
20260906064624 61 69 5.0 0.0 0.00 0.00 0.00 76 989.3
20260906063119 61 63 4.0 0.0 0.00 0.00 0.00 71 989.7
20260906061613 61 60 5.0 0.0 0.00 0.00 0.00 71 989.7
20260906060118 62 60 5.0 0.0 0.00 0.00 0.00 71 989.7
20260906054615 62 63 5.0 0.0 0.00 0.00 0.00 68 989.8
20260906053110 62 59 5.0 0.0 0.00 0.00 0.00 71 989.5
20260906051614 63 56 5.0 0.0 0.00 0.00 0.00 71 989.5
20260906050117 63 61 5.0 0.0 0.00 0.00 0.00 71 989.5
20260906044614 64 67 5.0 0.0 0.00 0.00 0.00 73 989.4
20260906043120 64 62 5.0 0.0 0.00 0.00 0.00 68 989.3
20260906041613 64 58 5.0 0.0 0.00 0.00 0.00 68 989.3
20260906040109 64 59 5.0 0.0 0.00 0.00 0.00 68 989.3
20260906034608 65 61 6.0 0.0 0.00 0.00 0.00 71 989.2
20260906033115 65 61 5.0 0.0 0.00 0.00 0.00 72 989.7
20260906031613 66 59 6.0 0.0 0.00 0.00 0.00 72 989.7
20260906030116 67 57 6.0 0.0 0.00 0.00 0.00 72 989.7
20260906024613 67 57 6.0 0.0 0.00 0.00 0.00 74 988.2
20260906023109 67 57 6.0 0.0 0.00 0.00 0.00 74 988.7
20260906021607 68 56 6.0 0.0 0.00 0.00 0.00 74 988.7
20260906020106 68 55 6.0 0.0 0.00 0.00 0.00 74 988.7
20260906015120 69 50 5.0 0.0 0.00 0.00 0.00 72 987.9
20260906013111 69 43 5.0 0.0 0.00 0.00 0.00 72 987.9
20260906011612 69 49 7.0 0.0 0.00 0.00 0.00 72 987.9
20260906010127 70 47 7.0 0.0 0.00 0.00 0.00 72 987.9
20260906004611 69 52 5.0 0.0 0.00 0.00 0.00 77 988.1
20260906003119 70 29 4.0 0.0 0.00 0.00 0.00 75 988.1
20260906001611 71 36 4.0 0.0 0.00 0.00 0.00 75 988.1
20260906000121 71 28 4.0 0.0 0.00 0.00 0.00 75 988.1
20260905234617 72 28 4.0 0.0 0.00 0.00 0.00 67 987.9
20260905233113 73 30 4.0 0.0 0.00 0.00 0.00 67 988.0
20260905231616 74 43 5.0 0.0 0.00 0.00 0.00 67 988.0
20260905230117 75 48 5.0 0.0 0.00 0.00 0.00 67 988.0
20260905224617 75 49 6.0 0.0 0.00 0.00 0.00 70 987.7
20260905223109 76 48 6.0 0.0 0.00 0.00 0.00 69 988.2
20260905221611 76 54 6.0 0.0 0.00 0.00 0.00 69 988.2
20260905220110 76 54 6.0 0.0 0.00 0.00 0.00 69 988.2
20260905214617 76 49 7.0 0.0 0.00 0.00 0.00 71 988.1
20260905213118 76 49 7.0 0.0 0.00 0.00 0.00 74 988.4
20260905211611 74 47 5.0 0.0 0.00 0.00 0.00 74 988.3
20260905210118 74 45 6.0 0.0 0.00 0.00 0.00 74 988.3
20260905204617 75 46 7.0 0.0 0.00 0.00 0.00 78 987.4
20260905203116 75 48 8.0 0.0 0.00 0.00 0.00 78 987.7
20260905201616 73 55 7.0 0.0 0.00 0.00 0.00 78 987.7
20260905200123 74 50 7.0 0.0 0.00 0.00 0.00 78 987.7
20260905194617 74 45 7.0 0.0 0.00 0.00 0.00 78 987.9
20260905193118 74 43 7.0 0.0 0.00 0.00 0.00 78 987.9
20260905191610 74 38 5.0 0.0 0.00 0.00 0.00 78 987.9
20260905190125 74 43 4.0 0.0 0.00 0.00 0.00 78 987.9
20260905184618 74 49 5.0 0.0 0.00 0.00 0.00 80 988.7
20260905183117 76 53 5.0 0.0 0.00 0.00 0.00 75 988.7
20260905181616 77 42 5.0 0.0 0.00 0.00 0.00 75 988.7
20260905180118 77 58 5.0 0.0 0.00 0.00 0.00 75 988.7
20260905174616 76 62 6.0 0.0 0.00 0.00 0.00 80 988.9
20260905173117 75 58 6.0 0.0 0.00 0.00 0.00 79 988.1
20260905171617 75 61 5.0 0.0 0.00 0.00 0.00 79 988.1
20260905170127 75 68 5.0 0.0 0.00 0.00 0.00 79 988.1
20260905164617 74 67 4.0 0.0 0.00 0.00 0.00 85 988.6
20260905163117 73 66 4.0 0.0 0.00 0.00 0.00 82 987.4
20260905161614 75 71 4.0 0.0 0.00 0.00 0.00 82 987.5
20260905160110 74 75 5.0 0.0 0.00 0.00 0.00 82 987.5
20260905154610 73 80 4.0 0.0 0.00 0.00 0.00 85 988.7
20260905153116 73 72 5.0 0.0 0.00 0.00 0.00 86 987.5
20260905151610 72 56 6.0 0.0 0.00 0.00 0.00 86 987.5
20260905150111 72 60 6.0 0.0 0.00 0.00 0.00 86 987.5
20260905144624 71 61 5.0 0.0 0.00 0.00 0.00 89 988.0
20260905143107 71 58 5.0 0.0 0.00 0.00 0.00 87 987.6
20260905141616 72 50 6.0 0.0 0.00 0.00 0.00 87 987.6
20260905140117 72 54 6.0 0.0 0.00 0.00 0.00 87 987.6
20260905134616 72 56 6.0 0.0 0.00 0.00 0.00 95 987.0
20260905133117 71 65 5.0 0.0 0.00 0.00 0.00 95 987.0
20260905131611 70 53 5.0 0.0 0.00 0.00 0.00 95 986.9
20260905130119 70 54 6.0 0.0 0.00 0.00 0.00 95 986.9
20260905124616 70 48 6.0 0.0 0.00 0.00 0.00 96 986.4
20260905123118 70 44 6.0 0.0 0.00 0.00 0.00 96 986.4